Chittagong, Bangladesh

6:19 PM +06 on November 15, 2019 (GMT +0600)
M.A. Hannan International

Weather History for VGEG - October, 2019

Change the Weather History Date:

Wednesday, October 23, 2019

  Actual Average Record
Temperature  
Mean Temperature 86 °F -  
Max Temperature 93 °F 85 °F 93 °F (2016)
Min Temperature 78 °F 78 °F 73 °F (2016)
Cooling Degree Days 20    
Growing Degree Days 36 (Base 50)    
Moisture  
Dew Point 77 °F    
Average Humidity 71    
Maximum Humidity 97    
Minimum Humidity 42    
Precipitation  
Precipitation 0.00 in - - ()
Sea Level Pressure  
Sea Level Pressure 29.79 in    
Wind  
Wind Speed 1 mph ()    
Max Wind Speed 6 mph    
Max Gust Speed -    
Visibility 2.4 miles    
Events      
Averages and records for this station are not official NWS values.
T = Trace of Precipitation, MM = Missing Value Source: Averaged Metar Reports

Daily Weather History Graph

Daily Weather History Graph

Search for Another Location

Airport or City:

Astronomy

Oct. 23, 2019 Rise Set
Actual Time 5:52 AM +06 5:21 PM +06
Civil Twilight 5:29 AM +06 5:44 PM +06
Nautical Twilight 5:03 AM +06 6:10 PM +06
Astronomical Twilight 4:37 AM +06 6:36 PM +06
Moon 12:30 AM +06 (10/23) 2:01 PM +06 (10/23)
Length of Visible Light 12h 15m
Length of Day
11h 29m
Waning Crescent, 31% of the Moon is Illuminated
Oct 23
Waning Crescent
Oct 28
New
Nov 4
First Quarter
Nov 12
Full
Nov 20
Last Quarter

Hourly Weather History & Observations

Time (+06) Temp. Heat Index Dew Point Humidity Pressure Visibility Wind Dir Wind Speed Gust Speed Precip Events Conditions
12:00 AM 84 °F - 79 °F 80% 29.80 in 3 mi Calm Calm - -   Haze
3:00 AM 83 °F - 82 °F 97% 29.79 in 3 mi Calm Calm - -   Haze
7:00 AM 80.6 °F 88.1 °F 78.8 °F 94% 29.83 in 3.1 mi Calm Calm - N/A   Haze
8:00 AM 80.6 °F 88.1 °F 78.8 °F 94% 29.83 in 2.2 mi Calm Calm - N/A   Haze
9:00 AM 85 °F - 79 °F 77% 29.85 in 2 mi ENE 2.3 mph - -   Haze
9:00 AM 84.2 °F 96.1 °F 78.8 °F 84% 29.86 in - ENE 2.3 mph - N/A   Haze
10:00 AM 86.0 °F 99.3 °F 78.8 °F 79% 29.83 in 2.2 mi NNE 2.3 mph - N/A   Haze
11:00 AM 89.6 °F 104.7 °F 78.8 °F 70% 29.83 in 2.2 mi Calm Calm - N/A   Haze
12:00 PM 92 °F - 73 °F 46% 29.80 in 2 mi Calm Calm - -   Haze
12:00 PM 93.2 °F 102.4 °F 73.4 °F 52% 29.80 in 2.5 mi Calm Calm - N/A   Haze
1:00 PM 93.2 °F 102.4 °F 73.4 °F 52% 29.77 in 2.5 mi WNW 5.8 mph - N/A   Haze
2:00 PM 93.2 °F 102.4 °F 73.4 °F 52% 29.74 in 2.5 mi WNW 5.8 mph - N/A   Haze
3:00 PM 92 °F - 72 °F 42% 29.74 in 2 mi West 5.8 mph - -   Haze
3:00 PM 91.4 °F 98.4 °F 71.6 °F 52% 29.74 in 2.5 mi West 5.8 mph - N/A   Scattered Clouds
4:00 PM 91.4 °F 98.4 °F 71.6 °F 52% 29.71 in 2.5 mi WNW 5.8 mph - N/A   Haze
5:00 PM 87.8 °F 93.8 °F 71.6 °F 58% 29.74 in 2.5 mi WNW 3.5 mph - N/A   Haze
6:00 PM 87.8 °F 97.6 °F 75.2 °F 66% 29.74 in 2.5 mi West 3.5 mph - N/A   Haze
7:00 PM 86.0 °F 95.1 °F 75.2 °F 70% 29.77 in 2.5 mi West 3.5 mph - N/A   Haze
9:00 PM 84 °F - 81 °F 87% 29.83 in 2 mi Calm Calm - -   Haze
9:00 PM 84.2 °F 98.3 °F 80.6 °F 89% 29.83 in 2.5 mi Calm Calm - N/A   Haze
10:00 PM 84.2 °F 98.3 °F 80.6 °F 89% 29.83 in 2.5 mi Calm Calm - N/A   Haze
11:00 PM 84.2 °F 98.3 °F 80.6 °F 89% 29.83 in 2.5 mi Calm Calm - N/A   Haze